Date String (YYYY-MM-DD hh:mm:ss) UTC,Instrument flags,Ambient pressure (hPa),Sample flow (lpm),Bypass flow (lpm),Sample temperature (°C),Ambient temperature (°C),ASC tube jacket temperature (°C),LED temperature (°C),Box temperature (°C),Sample RH (%),Span deviation,Mass concentration (μg/m³),Mass concentration (μg/m³),Mass concentration (μg/m³)
DateTimeUTC,F1_M11,P_M11,Q1_M11,Q2_M11,T1_M11,T2_M11,T3_M11,T4_M11,T5_M11,U1_M11,ZSPAN_M11,X0_M11,X2_M11,X1_M11
2022-06-13 05:00:00,,0817.2,4.99,0.00,29.1,27.4,00.0,38.0,30.9,15.0,0000.0,0013.09,0005.71,0004.79
2022-06-13 05:01:00,,0817.1,4.99,0.00,29.1,27.6,00.0,38.0,31.0,15.1,0000.0,0013.32,0005.72,0004.79
2022-06-13 05:02:00,,0817.2,5.00,0.00,29.1,27.7,00.0,38.0,31.0,14.7,0000.0,0013.11,0005.73,0004.79
2022-06-13 05:03:00,,0817.1,5.01,0.00,29.2,27.8,00.0,38.0,31.1,14.4,0000.0,0013.24,0005.72,0004.79
2022-06-13 05:04:00,,0817.1,5.00,0.00,29.2,27.9,00.0,38.0,31.1,14.4,0000.0,0014.02,0005.73,0004.78
2022-06-13 05:05:00,,0817.1,5.00,0.00,29.2,28.0,00.0,38.1,31.1,14.2,0000.0,0014.05,0005.79,0004.80
2022-06-13 05:06:00,,0817.1,5.00,0.00,29.2,28.1,00.0,38.1,31.2,14.5,0000.0,0013.75,0005.75,0004.80
2022-06-13 05:07:00,,0817.1,4.99,0.00,29.3,28.2,00.0,38.1,31.2,14.1,0000.0,0013.49,0005.77,0004.80
2022-06-13 05:08:00,,0817.1,5.00,0.00,29.3,28.3,00.0,38.1,31.2,13.5,0000.0,0013.37,0005.77,0004.81
2022-06-13 05:09:00,,0817.1,5.00,0.00,29.3,28.4,00.0,38.1,31.3,13.2,0000.0,0013.37,0005.76,0004.81
2022-06-13 05:10:00,,0817.0,5.00,0.00,29.3,28.5,00.0,38.1,31.3,12.5,0000.0,0013.04,0005.75,0004.82
2022-06-13 05:11:00,,0817.0,5.00,0.00,29.4,28.5,00.0,38.2,31.3,12.0,0000.0,0013.37,0005.83,0004.85
2022-06-13 05:12:00,,0817.1,5.01,0.00,29.4,28.6,00.0,38.2,31.4,11.7,0000.0,0013.00,0005.85,0004.86
2022-06-13 05:13:00,,0817.0,5.00,0.00,29.4,28.6,00.0,38.2,31.4,11.5,0000.0,0013.93,0005.86,0004.87
2022-06-13 05:14:00,,0817.1,4.99,0.00,29.4,28.0,00.0,38.1,31.2,11.6,0000.0,0014.19,0005.87,0004.88
2022-06-13 05:15:00,,0817.0,5.01,0.00,29.3,27.5,00.0,38.1,31.1,11.5,0000.0,0013.77,0005.88,0004.90
2022-06-13 05:16:00,,0817.1,4.99,0.00,29.3,27.4,00.0,38.1,31.0,11.9,0000.0,0013.68,0005.92,0004.90
2022-06-13 05:17:00,,0817.0,5.02,0.00,29.2,27.4,00.0,38.1,31.0,13.2,0000.0,0014.24,0005.95,0004.90
2022-06-13 05:18:00,,0817.0,4.99,0.00,29.2,27.5,00.0,38.1,31.0,13.3,0000.0,0014.79,0005.99,0004.91
2022-06-13 05:19:00,,0817.0,4.99,0.00,29.2,27.6,00.0,38.1,31.0,12.6,0000.0,0015.03,0006.08,0004.93
2022-06-13 05:20:00,,0817.1,5.00,0.00,29.2,27.7,00.0,38.1,31.1,12.1,0000.0,0015.59,0006.14,0004.93
2022-06-13 05:21:00,,0817.1,5.00,0.00,29.2,27.8,00.0,38.1,31.1,12.3,0000.0,0015.74,0006.15,0004.93
2022-06-13 05:22:00,,0817.1,5.01,0.00,29.2,27.9,00.0,38.1,31.1,12.0,0000.0,0014.96,0006.09,0004.91
2022-06-13 05:23:00,,0817.1,4.99,0.00,29.2,28.0,00.0,38.1,31.2,12.2,0000.0,0015.19,0006.09,0004.92
2022-06-13 05:24:00,,0817.1,5.00,0.00,29.3,28.1,00.0,38.1,31.2,12.1,0000.0,0014.79,0006.14,0004.92
2022-06-13 05:25:00,,0817.1,4.98,0.00,29.3,28.2,00.0,38.1,31.2,12.1,-000.3,0014.46,0006.12,0004.92
2022-06-13 05:26:00,,0817.2,4.99,0.00,29.3,28.3,00.0,38.1,31.3,11.9,0000.0,0015.09,0006.12,0004.92
2022-06-13 05:27:00,,0817.2,5.01,0.00,29.3,28.4,00.0,38.1,31.3,12.0,0000.0,0014.91,0006.03,0004.91
2022-06-13 05:28:00,,0817.2,4.99,0.00,29.4,28.5,00.0,38.2,31.3,12.0,0000.0,0014.77,0006.04,0004.91
2022-06-13 05:29:00,,0817.2,5.00,0.00,29.4,28.5,00.0,38.2,31.4,12.1,0000.0,0014.41,0006.02,0004.92
2022-06-13 05:30:00,,0817.2,4.99,0.00,29.4,28.6,00.0,38.2,31.4,12.1,-000.6,0014.48,0005.99,0004.93
2022-06-13 05:31:00,,0817.2,4.99,0.00,29.5,28.6,00.0,38.2,31.4,12.2,0000.0,0013.94,0005.91,0004.93
2022-06-13 05:32:00,,0817.3,5.01,0.00,29.5,28.7,00.0,38.2,31.4,12.4,0000.0,0013.85,0005.93,0004.92
2022-06-13 05:33:00,,0817.3,5.00,0.00,29.5,28.6,00.0,38.2,31.4,12.5,0000.0,0014.21,0005.91,0004.91
2022-06-13 05:34:00,,0817.2,5.00,0.00,29.5,27.9,00.0,38.2,31.3,12.6,0000.0,0013.70,0005.93,0004.91
2022-06-13 05:35:00,,0817.3,5.00,0.00,29.4,27.5,00.0,38.1,31.2,12.4,0000.0,0012.73,0005.85,0004.91
2022-06-13 05:36:00,,0817.3,5.00,0.00,29.4,27.4,00.0,38.2,31.1,12.2,0000.0,0012.54,0005.84,0004.91
2022-06-13 05:37:00,,0817.3,5.00,0.00,29.3,27.4,00.0,38.1,31.0,12.2,0000.0,0011.52,0005.82,0004.90
2022-06-13 05:38:00,,0817.3,5.00,0.00,29.3,27.5,00.0,38.1,31.0,12.2,0000.0,0011.19,0005.83,0004.90
2022-06-13 05:39:00,,0817.2,5.00,0.00,29.3,27.6,00.0,38.1,31.1,12.2,0000.0,0010.94,0005.83,0004.90
2022-06-13 05:40:00,,0817.2,5.00,0.00,29.3,27.8,00.0,38.1,31.1,12.1,0000.0,0011.64,0005.82,0004.89
2022-06-13 05:41:00,,0817.2,5.00,0.00,29.3,27.9,00.0,38.1,31.1,12.1,0000.1,0012.58,0005.81,0004.88
2022-06-13 05:42:00,,0817.2,5.01,0.00,29.3,28.0,00.0,38.1,31.2,12.2,0000.5,0012.62,0005.85,0004.88
2022-06-13 05:43:00,,0817.2,5.00,0.00,29.3,28.1,00.0,38.2,31.2,12.1,0001.7,0012.76,0005.82,0004.87
2022-06-13 05:44:00,,0817.2,4.98,0.00,29.3,28.2,00.0,38.2,31.2,12.2,0001.5,0012.53,0005.82,0004.88
2022-06-13 05:45:00,,0817.2,5.00,0.00,29.3,28.3,00.0,38.2,31.3,12.0,0000.0,0012.59,0005.77,0004.87
2022-06-13 05:46:00,,0817.2,5.00,0.00,29.4,28.4,00.0,38.2,31.3,11.8,0000.0,0012.60,0005.74,0004.86
2022-06-13 05:47:00,,0817.2,5.00,0.00,29.4,28.4,00.0,38.2,31.3,11.7,0000.0,0012.70,0005.70,0004.86
2022-06-13 05:48:00,,0817.2,4.99,0.00,29.4,28.5,00.0,38.2,31.4,11.6,0000.0,0013.64,0005.72,0004.86
2022-06-13 05:49:00,,0817.3,5.00,0.00,29.4,28.5,00.0,38.2,31.4,11.6,0000.0,0013.72,0005.72,0004.86
2022-06-13 05:50:00,,0817.2,5.00,0.00,29.5,28.6,00.0,38.2,31.4,11.6,0000.0,0014.39,0005.66,0004.86
2022-06-13 05:51:00,,0817.2,5.01,0.00,29.5,28.6,00.0,38.3,31.4,11.8,0000.0,0015.81,0005.69,0004.86
2022-06-13 05:52:00,,0817.2,5.00,0.00,29.5,28.4,00.0,38.2,31.4,11.9,0000.0,0015.85,0005.71,0004.87
2022-06-13 05:53:00,,0817.2,5.00,0.00,29.4,27.7,00.0,38.2,31.2,11.8,0000.0,0016.43,0005.72,0004.89
2022-06-13 05:54:00,,0817.2,4.99,0.00,29.4,27.4,00.0,38.1,31.1,12.0,0000.0,0016.72,0005.78,0004.92
2022-06-13 05:55:00,,0817.2,5.01,0.00,29.3,27.4,00.0,38.1,31.0,12.0,0000.0,0016.73,0005.81,0004.93
2022-06-13 05:56:00,,0817.1,5.00,0.00,29.3,27.4,00.0,38.1,31.0,11.7,0000.0,0017.54,0005.86,0004.93
2022-06-13 05:57:00,,0817.1,4.99,0.00,29.2,27.5,00.0,38.1,31.0,11.8,0000.0,0017.86,0005.91,0004.94
2022-06-13 05:58:00,,0817.1,5.00,0.00,29.2,27.7,00.0,38.1,31.1,11.9,0000.0,0017.84,0005.93,0004.95
2022-06-13 05:59:00,,0817.1,5.00,0.00,29.2,27.8,00.0,38.1,31.1,11.7,0000.0,0017.65,0005.91,0004.95
